Regional Weather Roundup
Issued by NWS

Home | Current Version | Previous Version | Text Only | Print | Product List | Glossary Off
Versions: 1 2 3 4 5 6 7 8 9 10 11 12 13 14 15 16 17 18 19 20 21 22 23 24 25 26 27

000
ASUS45 KBOU 260007
RWRCO

WEATHER ROUNDUP FOR COLORADO
NATIONAL WEATHER SERVICE DENVER/BOULDER CO
600 PM MDT SAT OCT 25 2014

NOTE: "FAIR" INDICATES FEW OR NO CLOUDS BELOW 12000 FEET WITH NO
SIGNIFICANT WEATHER AND/OR OBSTRUCTIONS TO VISIBILITY.

COZ001>005-013-030-031-260100-
...NORTHWEST COLORADO...

CITY           SKY/WX    TMP DP  RH WIND       PRES   REMARKS
CRAIG          CLEAR     65  28  24 SW10      30.11F
HAYDEN         CLEAR     64  23  20 W8        30.13F
MEEKER         PTCLDY    66  30  26 SW5       30.14F
MOUNT WERNER   NOT AVBL
STEAMBOAT SPGS CLEAR     64  22  20 SW3       30.16S
WALDEN         CLEAR     55  19  24 SW10      30.23S
$$

COZ006>008-011-260100-
...WEST CENTRAL VALLEYS...

CITY           SKY/WX    TMP DP  RH WIND       PRES   REMARKS
GRAND JUNCTION PTCLDY    68  35  29 W5        30.06F
MONTROSE       CLEAR     74  31  20 CALM      30.14F
EAGLE          CLEAR     68  28  22 CALM      30.17F
RIFLE          PTCLDY    70  32  24 SW8       30.09F
DELTA          CLEAR     78  28  16 SW12      30.10S
NUCLA          CLEAR     72  32  23 SW14      30.21S
$$

COZ017>023-064>068-260100-
...SOUTHWEST COLORADO...

CITY           SKY/WX    TMP DP  RH WIND       PRES   REMARKS
DURANGO        CLEAR     67  32  27 SW7       30.25F
CORTEZ         CLEAR     71  36  27 SW5       30.19F
PAGOSA SPRINGS CLEAR     66  25  21 SW6       30.32S
TELLURIDE      CLEAR     62  19  19 CALM      30.37F
WOLF CREEK PAS CLEAR     43  21  42 SW22G32     N/A
$$

COZ009-010-012-014-032>034-037-058>063-260100-
...CENTRAL COLORADO...

CITY           SKY/WX    TMP DP  RH WIND       PRES   REMARKS
ASPEN          CLEAR     55  25  31 CALM      30.22F
BUENA VISTA    CLEAR     62  12  14 CALM      30.24F
COPPER MTN     NOT AVBL
BERTHOUD PASS  FAIR      39  36  87 W9        30.55F
COTTONWOOD PAS CLEAR     61  -2   8 W7        30.37F
GUNNISON       CLEAR     64  27  24 SW7       30.26F
KREMMLING      CLEAR     64   9  11 CALM        N/A
LEADVILLE      CLEAR     55  10  16 S6        30.36F
MONARCH PASS   CLEAR     46  14  27 SW17      30.62F
SALIDA         CLEAR     68  19  15 S6        30.29S
SUNLIGHT       CLEAR     50  28  43 SW3       30.44F
WILKERSON PASS NOT AVBL
$$

COZ069>075-260100-
...SAN LUIS VALLEY/SANGRE DE CRISTO MOUNTAINS...

CITY           SKY/WX    TMP DP  RH WIND       PRES   REMARKS
ALAMOSA        CLEAR     66  20  17 SW12      30.24F
LA VETA PASS   CLEAR     55  19  24 S8G17     30.42F
SAGUACHE       CLEAR     64  23  20 SW15      30.25F
$$

COZ035-036-038>040-260100-
...NORTHERN COLORADO FRONT RANGE...

CITY           SKY/WX    TMP DP  RH WIND       PRES   REMARKS
DENVER INTL AP CLEAR     67  24  19 E9        30.05F
DMNS CITY PARK   N/A     72  19  13 E5        30.04F
AURORA         CLEAR     67  24  19 E8        30.06F
FRONT RANGE AP NOT AVBL
ERIE MUNI ARPT CLEAR     69  26  19 SE6       30.03F
BOULDER MUN AP CLEAR     73  25  16 CALM      30.04F
CENTENNIAL     CLEAR     71  22  15 S12       30.06F
BROOMFIELD     CLEAR     73  21  14 E7        30.08F
FORT COLLINS   CLEAR     72  27  18 SE7       30.04S
LONGMONT       CLEAR     73  24  15 CALM      30.05F
$$

COZ041-046-047-076>085-087-088-260100-
...PIKES PEAK/PALMER DIVIDE AND SOUTHERN FOOTHILLS...

CITY           SKY/WX    TMP DP  RH WIND       PRES   REMARKS
COLO. SPRINGS  CLEAR     68  23  18 S15       30.13F
A. F. ACADEMY  CLEAR     67  20  16 SE13      30.14F
ELLICOTT       NOT AVBL
FALCON         CLEAR     63  23  21 S9        30.19F
FORT CARSON    CLEAR     69  26  19 S9        30.11F
LIMON          CLEAR     65  28  24 SE6       30.07F
MONUMENT HILL  CLEAR     63  23  22 S13       30.16F
TRINIDAD       CLEAR     74  29  19 N7        30.09F
$$

COZ042>045-048>051-090-091-260100-
...NORTHEAST COLORADO...

CITY           SKY/WX    TMP DP  RH WIND       PRES   REMARKS
GREELEY ARPT   CLEAR     70  25  18 E6        30.03F
AKRON          CLEAR     66  35  31 E8        30.04F
BURLINGTON     CLEAR     73  36  25 S8        30.02S
WRAY           CLEAR     76  34  21 CALM      30.00F
STERLING       HAZE      73  36  25 SE7       29.99F VSB 3/4
HOLYOKE        CLEAR     68  34  28 E3        30.01F
FORT MORGAN    CLEAR     71  28  20 E5        30.03F
$$

COZ086-089-092>099-260100-
...SOUTHEAST COLORADO...

CITY           SKY/WX    TMP DP  RH WIND       PRES   REMARKS
PUEBLO         CLEAR     78  25  14 SE6       30.02F
LA JUNTA       CLEAR     79  30  16 E5        30.00F
LAMAR          CLEAR     74  37  26 E7        29.95F
SPRINGFIELD      N/A     72  33  24 S13       30.02F
$$



USA.gov is the U.S. government's official web portal to all federal, state and local government web resources and services.